weather.gov     
National Weather Service

Regional Weather Roundup
NWS Homepage
This page is being discontinued on March 12, 2014.
The same data is available at this site. Please update your bookmarks.
Thank you, and we apologize for the inconvenience.
Please send an email to SR-SRH.Webmaster@noaa.gov with any concerns.


Current Version
Previous Version:    01  02  03  04  05  06  07  08  09  10  11  12  13  14  15  16  17  18  19  20  21  22  23  24  25  26  27  28  29  30  
   31  32  33  34  35  36  37  38  39  40  41  42  43  44  45  46  47  48  49  50  51  52  53  54  
[Printable]
276
ASUS43 KOAX 020510
RWRNE

WEATHER ROUNDUP FOR NEBRASKA
NATIONAL WEATHER SERVICE OMAHA NE
1200 AM CDT TUE SEP 02 2014

NOTES: SATELLITE DATA IS BEING USED TO AUGMENT CLOUD COVER ABOVE
       12000 FEET.
       "FAIR" INDICATES FEW OR NO CLOUDS BELOW 12,000 FEET WITH NO
       SIGNIFICANT WEATHER AND/OR OBSTRUCTIONS TO VISIBILITY.

  * THESE STATIONS DO NOT REPORT WEATHER SUCH AS RAIN...SNOW OR FOG.

NEZ001>004-019>022-054>056-020600-
NEBRASKA PANHANDLE

CITY           SKY/WX    TMP DP  RH WIND       PRES   REMARKS
SCOTTSBLUFF    CLEAR     53  48  83 CALM      30.09R
ALLIANCE       CLEAR     47  46  97 CALM      30.07R
CHADRON        CLEAR     49  46  90 SW6       30.05R
KIMBALL        PTCLDY    51  45  79 CALM      30.11S
SIDNEY         PTCLDY    57  47  69 N8        30.11R
$$

NEZ057>060-069>072-079>082-020600-
SOUTHWEST NEBRASKA

CITY           SKY/WX    TMP DP  RH WIND       PRES   REMARKS
NORTH PLATTE   PTCLDY    56  53  90 S3        30.05R
IMPERIAL       PTCLDY    60  54  80 NE9       30.05R
LEXINGTON      PTCLDY    60  58  93 N5        30.04R
MCCOOK         PTCLDY    63  54  72 NE8       30.01R
OGALLALA       MOCLDY    55  51  86 CALM      30.07R
$$

NEZ005>010-023>029-035>040-094-020600-
NORTH CENTRAL NEBRASKA

CITY           SKY/WX    TMP DP  RH WIND       PRES   REMARKS
VALENTINE      CLEAR     52  51  97 SW7       30.01R
AINSWORTH      CLEAR     54  53  97 W5        30.01R
BROKEN BOW     PTCLDY    55  53  93 CALM      30.01S
O`NEILL        PTCLDY    58  57  97 SW6       29.98R
ORD            CLOUDY    56  55  97 SW9       29.99F
THEDFORD       CLEAR     55  54  95 CALM      30.04R
$$

NEZ041-046>049-061>064-073>077-083>087-020600-
SOUTH CENTRAL NEBRASKA

CITY           SKY/WX    TMP DP  RH WIND       PRES   REMARKS
GRAND ISLAND   PTCLDY    59  55  87 NW3       30.00R
AURORA         PTCLDY    58  55  89 CALM      29.98R
HASTINGS       PTCLDY    60  53  77 E6        29.97R
HEBRON         CLEAR     60  57  91 NW5       29.97R
HOLDREGE       MOCLDY    61  58  91 CALM      30.02F
KEARNEY *      MOCLDY    57  54  88 N7        30.00R
YORK           CLEAR     57 N/A N/A NW3       29.98R
$$

NEZ011>018-030>034-042>045-020600-
NORTHEAST NEBRASKA

CITY           SKY/WX    TMP DP  RH WIND       PRES   REMARKS
NORFOLK        CLOUDY    59  56  89 SW10      29.96F
ALBION         RAIN      58  56  94 W9        30.03R
BLAIR          PTCLDY    67  62  82 W16G26    29.97R
FREMONT        MOCLDY    64  58  81 NW16G23   29.97R
TEKAMAH        LGT RAIN  64  58  80 NW25G45   29.97R
WAYNE          CLOUDY    60  57  91 E6        29.91F
$$

NEZ050>053-065>068-078-088>093-020600-
SOUTHEAST NEBRASKA

CITY           SKY/WX    TMP DP  RH WIND       PRES   REMARKS
LINCOLN        CLEAR     67  60  78 NW14G23   29.97R
OMAHA EPPLEY   PTCLDY    64  62  93 NW5       29.95R
BEATRICE       CLEAR     58  58  98 W5        29.96R
FALLS CITY     PTCLDY    64  63  96 NW3       29.91R
NEBRASKA CITY  CLEAR     61  61 100 SW5       29.94R
PLATTSMOUTH    CLEAR     64  61  91 W5        29.95R
$$

NEZ044-045-051>053-067-020600-
OMAHA AREA

CITY           SKY/WX    TMP DP  RH WIND       PRES   REMARKS
OMAHA EPPLEY   PTCLDY    64  62  93 NW5       29.95R
BLAIR          PTCLDY    67  62  82 W16G26    29.97R
FREMONT        MOCLDY    64  58  81 NW16G23   29.97R
MILLARD        PTCLDY    68  63  85 NW10      29.95R
OFFUTT AFB     CLEAR     64  64 100 NW6       29.94R
PLATTSMOUTH    CLEAR     64  61  91 W5        29.95R
WAHOO          FAIR      63  57  80 NW12G23   29.97R
$$




U.S. Dept. of Commerce
NOAA National Weather Service
1325 East West Highway
Silver Spring, MD 20910
E-mail: w-nws.webmaster@noaa.gov
Page last modified: May 16, 2007
NATIONAL WEATHER SERVICE: for Safety, for Work, for Fun - FOR LIFE